Terminal Aerodrome Forecast
Issued by NWS Houston/Galveston, TX

Home | Current Version | Previous Version | Text Only | Print | Product List | Glossary On
Versions: 1 2 3 4 5 6 7 8 9 10 11 12 13 14 15 16 17 18 19 20 21 22 23 24 25 26 27 28 29 30 31 32
000
FTUS44 KHGX 282345
TAFGLS
TAF
KGLS 282345Z 2900/2924 18013KT P6SM SKC
     FM290400 25007KT P6SM FEW250
     FM291900 VRB06KT P6SM VCSH SCT035 BKN250=

USA.gov is the U.S. government's official web portal to all federal, state and local government web resources and services.